North Wilkesboro, NC

5:36 AM EST on December 06, 2019 (GMT -0500)
Wilkes County

Weather History for KUKF - October, 2019

Change the Weather History Date:

Thursday, October 10, 2019

  Actual Average Record
Temperature  
Mean Temperature 63 °F -  
Max Temperature 73 °F 72 °F 85 °F (1958)
Min Temperature 53 °F 45 °F 30 °F (1987)
Degree Days  
Heating Degree Days 2    
Growing Degree Days 13 (Base 50)    
Moisture  
Dew Point 56 °F    
Average Humidity 82    
Maximum Humidity 100    
Minimum Humidity 50    
Precipitation  
Precipitation 0.00 in - - ()
Sea Level Pressure  
Sea Level Pressure 30.26 in    
Wind  
Wind Speed 2 mph (ENE)    
Max Wind Speed 8 mph    
Max Gust Speed -    
Visibility 10 miles    
Events      
Averages and records for this station are not official NWS values.
T = Trace of Precipitation, MM = Missing Value Source: NWS Daily Summary

Daily Weather History Graph

Daily Weather History Graph

Search for Another Location

Airport or City:

Astronomy

Oct. 10, 2019 Rise Set
Actual Time 7:26 AM EDT 6:55 PM EDT
Civil Twilight 7:01 AM EDT 7:21 PM EDT
Nautical Twilight 6:31 AM EDT 7:50 PM EDT
Astronomical Twilight 6:01 AM EDT 8:20 PM EDT
Moon 5:49 PM EDT (10/10) 4:17 AM EDT (10/10)
Length of Visible Light 12h 20m
Length of Day
11h 28m
Waxing Gibbous, 91% of the Moon is Illuminated
Oct 10
Waxing Gibbous
Oct 13
Full
Oct 21
Last Quarter
Oct 27
New
Nov 4
First Quarter

Hourly Weather History & Observations

Time (EDT) Temp. Dew Point Humidity Pressure Visibility Wind Dir Wind Speed Gust Speed Precip Events Conditions
12:15 AM 57.2 °F 57.2 °F 100% 30.27 in 10.0 mi Calm Calm - N/A   Overcast
12:35 AM 59.0 °F 59.0 °F 100% 30.27 in 10.0 mi Calm Calm - N/A   Overcast
12:55 AM 59.0 °F 59.0 °F 100% 30.28 in 10.0 mi Calm Calm - N/A   Overcast
1:15 AM 59.0 °F 55.4 °F 88% 30.28 in 10.0 mi NE 4.6 mph - N/A   Overcast
1:35 AM 59.0 °F 55.4 °F 88% 30.28 in 10.0 mi ENE 3.5 mph - N/A   Overcast
1:55 AM 59.0 °F 55.4 °F 88% 30.29 in 10.0 mi ENE 3.5 mph - N/A   Overcast
2:15 AM 59.0 °F 55.4 °F 88% 30.29 in 10.0 mi NNE 3.5 mph - N/A   Overcast
2:35 AM 59.0 °F 55.4 °F 88% 30.28 in 10.0 mi NNE 4.6 mph - N/A   Overcast
2:55 AM 59.0 °F 57.2 °F 94% 30.28 in 10.0 mi North 3.5 mph - N/A   Overcast
3:15 AM 59.0 °F 57.2 °F 94% 30.28 in 10.0 mi North 3.5 mph - N/A   Overcast
3:35 AM 59.0 °F 57.2 °F 94% 30.28 in 10.0 mi Calm Calm - N/A   Overcast
3:55 AM 59.0 °F 57.2 °F 94% 30.28 in 10.0 mi Calm Calm - N/A   Overcast
4:15 AM 57.2 °F 57.2 °F 100% 30.28 in 10.0 mi Calm Calm - N/A   Overcast
4:35 AM 55.4 °F 55.4 °F 100% 30.28 in 10.0 mi Calm Calm - N/A   Mostly Cloudy
4:55 AM 55.4 °F 55.4 °F 100% 30.28 in 10.0 mi Calm Calm - N/A   Scattered Clouds
5:15 AM 53.6 °F 53.6 °F 100% 30.28 in 10.0 mi Calm Calm - N/A   Scattered Clouds
5:35 AM 53.6 °F 53.6 °F 100% 30.28 in 10.0 mi Calm Calm - N/A   Mostly Cloudy
5:55 AM 53.6 °F 53.6 °F 100% 30.29 in 10.0 mi Calm Calm - N/A   Mostly Cloudy
6:15 AM 53.6 °F 53.6 °F 100% 30.29 in 10.0 mi Calm Calm - N/A   Overcast
6:35 AM 53.6 °F 53.6 °F 100% 30.30 in 10.0 mi Calm Calm - N/A   Overcast
6:55 AM 53.6 °F 53.6 °F 100% 30.30 in 10.0 mi Calm Calm - N/A   Overcast
7:15 AM 55.4 °F 55.4 °F 100% 30.30 in 10.0 mi Calm Calm - N/A   Overcast
7:35 AM 55.4 °F 55.4 °F 100% 30.30 in 10.0 mi Calm Calm - N/A   Overcast
7:55 AM 55.4 °F 55.4 °F 100% 30.30 in 10.0 mi ENE 3.5 mph - N/A   Overcast
8:15 AM 55.4 °F 55.4 °F 100% 30.30 in 10.0 mi East 3.5 mph - N/A   Overcast
8:35 AM 57.2 °F 57.2 °F 100% 30.30 in 10.0 mi Calm Calm - N/A   Mostly Cloudy
8:55 AM 59.0 °F 57.2 °F 94% 30.30 in 10.0 mi Calm Calm - N/A   Scattered Clouds
9:15 AM 59.0 °F 55.4 °F 88% 30.31 in 10.0 mi East 3.5 mph - N/A   Scattered Clouds
9:35 AM 59.0 °F 55.4 °F 88% 30.31 in 10.0 mi Calm Calm - N/A   Scattered Clouds
9:55 AM 60.8 °F 55.4 °F 82% 30.30 in 10.0 mi Calm Calm - N/A   Mostly Cloudy
10:15 AM 60.8 °F 55.4 °F 82% 30.30 in 10.0 mi Calm Calm - N/A   Mostly Cloudy
10:35 AM 60.8 °F 55.4 °F 82% 30.30 in 10.0 mi East 3.5 mph - N/A   Mostly Cloudy
10:55 AM 62.6 °F 55.4 °F 77% 30.30 in 10.0 mi ESE 3.5 mph - N/A   Mostly Cloudy
11:15 AM 64.4 °F 53.6 °F 68% 30.30 in 10.0 mi Calm Calm - N/A   Mostly Cloudy
11:35 AM 64.4 °F 55.4 °F 73% 30.29 in 10.0 mi SSE 3.5 mph - N/A   Scattered Clouds
11:55 AM 64.4 °F 55.4 °F 73% 30.28 in 10.0 mi ENE 3.5 mph - N/A   Mostly Cloudy
12:15 PM 64.4 °F 53.6 °F 68% 30.28 in 10.0 mi Calm Calm - N/A   Scattered Clouds
12:35 PM 68.0 °F 55.4 °F 64% 30.28 in 10.0 mi Calm Calm - N/A   Mostly Cloudy
12:55 PM 64.4 °F 55.4 °F 73% 30.27 in 10.0 mi Calm Calm - N/A   Scattered Clouds
1:15 PM 68.0 °F 55.4 °F 64% 30.27 in 10.0 mi Calm Calm - N/A   Clear
1:35 PM 68.0 °F 55.4 °F 64% 30.26 in 10.0 mi NNW 3.5 mph - N/A   Clear
1:55 PM 69.8 °F 55.4 °F 60% 30.24 in 10.0 mi East 3.5 mph - N/A   Clear
2:15 PM 71.6 °F 55.4 °F 57% 30.23 in 7.0 mi East 3.5 mph - N/A   Clear
2:35 PM 71.6 °F 55.4 °F 57% 30.22 in 10.0 mi SSE 3.5 mph - N/A   Clear
2:55 PM 71.6 °F 55.4 °F 57% 30.22 in 10.0 mi ESE 6.9 mph - N/A   Clear
3:15 PM 73.4 °F 55.4 °F 53% 30.20 in 10.0 mi ESE 4.6 mph - N/A   Clear
3:35 PM 73.4 °F 55.4 °F 53% 30.20 in 10.0 mi ESE 4.6 mph - N/A   Clear
3:55 PM 73.4 °F 55.4 °F 53% 30.20 in 10.0 mi ESE 5.8 mph - N/A   Clear
4:15 PM 73.4 °F 53.6 °F 50% 30.20 in 10.0 mi East 4.6 mph - N/A   Clear
4:35 PM 73.4 °F 55.4 °F 53% 30.20 in 10.0 mi ESE 8.1 mph - N/A   Clear
4:55 PM 73.4 °F 53.6 °F 50% 30.20 in 10.0 mi ENE 5.8 mph - N/A   Clear
5:35 PM 71.6 °F 51.8 °F 50% 30.20 in 10.0 mi East 4.6 mph - N/A   Clear
5:55 PM 71.6 °F 53.6 °F 53% 30.20 in 10.0 mi ENE 4.6 mph - N/A   Clear
6:15 PM 71.6 °F 53.6 °F 53% 30.20 in 10.0 mi ENE 4.6 mph - N/A   Clear
6:35 PM 69.8 °F 55.4 °F 60% 30.20 in 10.0 mi ENE 3.5 mph - N/A   Clear
6:55 PM 68.0 °F 55.4 °F 64% 30.20 in 10.0 mi Calm Calm - N/A   Clear
7:15 PM 66.2 °F 55.4 °F 68% 30.20 in 10.0 mi East 3.5 mph - N/A   Clear
7:35 PM 66.2 °F 55.4 °F 68% 30.21 in 10.0 mi ENE 3.5 mph - N/A   Clear
7:55 PM 64.4 °F 55.4 °F 73% 30.21 in 10.0 mi Calm Calm - N/A   Clear
8:15 PM 62.6 °F 55.4 °F 77% 30.21 in 10.0 mi Calm Calm - N/A   Clear
8:35 PM 60.8 °F 55.4 °F 82% 30.21 in 10.0 mi Calm Calm - N/A   Clear
8:55 PM 59.0 °F 57.2 °F 94% 30.22 in 10.0 mi NNE 4.6 mph - N/A   Clear
9:15 PM 59.0 °F 57.2 °F 94% 30.23 in 10.0 mi North 5.8 mph - N/A   Clear
9:35 PM 59.0 °F 57.2 °F 94% 30.23 in 10.0 mi NNE 3.5 mph - N/A   Clear
9:55 PM 57.2 °F 57.2 °F 100% 30.24 in 10.0 mi North 5.8 mph - N/A   Clear
10:15 PM 57.2 °F 57.2 °F 100% 30.24 in 10.0 mi North 6.9 mph - N/A   Scattered Clouds
10:35 PM 59.0 °F 59.0 °F 100% 30.24 in 10.0 mi North 5.8 mph - N/A   Scattered Clouds
10:55 PM 55.4 °F 55.4 °F 100% 30.24 in 10.0 mi North 4.6 mph - N/A   Clear
11:15 PM 55.4 °F 55.4 °F 100% 30.24 in 10.0 mi North 4.6 mph - N/A   Clear
11:35 PM 55.4 °F 55.4 °F 100% 30.25 in 10.0 mi North 3.5 mph - N/A   Clear
11:55 PM 55.4 °F 55.4 °F 100% 30.25 in 10.0 mi North 3.5 mph - N/A   Clear